Year,Month,Day,Hour,Minute,Value (Times are PST for temperature in C)
2016,03,30,00,00,7.20
2016,03,30,00,01,7.20
2016,03,30,00,02,7.20
2016,03,30,00,03,7.20
2016,03,30,00,04,7.20
2016,03,30,00,05,7.20
2016,03,30,00,06,7.20
2016,03,30,00,07,7.20
2016,03,30,00,08,7.20
2016,03,30,00,09,7.20
2016,03,30,00,10,7.20
2016,03,30,00,11,7.20
2016,03,30,00,12,7.20
2016,03,30,00,13,7.20
2016,03,30,00,14,7.20
2016,03,30,00,15,7.20
2016,03,30,00,16,7.10
2016,03,30,00,17,7.10
2016,03,30,00,18,7.10
2016,03,30,00,19,7.10
2016,03,30,00,20,7.10
2016,03,30,00,21,7.00
2016,03,30,00,22,7.00
2016,03,30,00,23,6.90
2016,03,30,00,24,6.90
2016,03,30,00,25,6.90
2016,03,30,00,26,6.90
2016,03,30,00,27,6.80
2016,03,30,00,28,6.80
2016,03,30,00,29,6.80
2016,03,30,00,30,6.80
2016,03,30,00,31,6.80
2016,03,30,00,32,6.80
2016,03,30,00,33,6.80
2016,03,30,00,34,6.80
2016,03,30,00,35,6.80
2016,03,30,00,36,6.80
2016,03,30,00,37,6.80
2016,03,30,00,38,6.80
2016,03,30,00,39,6.80
2016,03,30,00,40,6.80
2016,03,30,00,41,6.80
2016,03,30,00,42,6.80
2016,03,30,00,43,6.80
2016,03,30,00,44,6.80
2016,03,30,00,45,6.80
2016,03,30,00,46,6.80
2016,03,30,00,47,6.80
2016,03,30,00,48,6.80
2016,03,30,00,49,6.80
2016,03,30,00,50,6.80
2016,03,30,00,51,6.80
2016,03,30,00,52,6.80
2016,03,30,00,53,6.80
2016,03,30,00,54,6.70
2016,03,30,00,55,6.70
2016,03,30,00,56,6.70
2016,03,30,00,57,6.70
2016,03,30,00,58,6.70
2016,03,30,00,59,6.60
2016,03,30,01,00,6.60
2016,03,30,01,01,6.60
2016,03,30,01,02,6.60
2016,03,30,01,03,6.60
2016,03,30,01,04,6.60
2016,03,30,01,05,6.60
2016,03,30,01,06,6.60
2016,03,30,01,07,6.60
2016,03,30,01,08,6.60
2016,03,30,01,09,6.60
2016,03,30,01,10,6.60
2016,03,30,01,11,6.60
2016,03,30,01,12,6.50
2016,03,30,01,13,6.50
2016,03,30,01,14,6.50
2016,03,30,01,15,6.40
2016,03,30,01,16,6.40
2016,03,30,01,17,6.40
2016,03,30,01,18,6.40
2016,03,30,01,19,6.40
2016,03,30,01,20,6.40
2016,03,30,01,21,6.40
2016,03,30,01,22,6.40
2016,03,30,01,23,6.40
2016,03,30,01,24,6.30
2016,03,30,01,25,6.30
2016,03,30,01,26,6.30
2016,03,30,01,27,6.30
2016,03,30,01,28,6.30
2016,03,30,01,29,6.30
2016,03,30,01,30,6.30
2016,03,30,01,31,6.20
2016,03,30,01,32,6.20
2016,03,30,01,33,6.20
2016,03,30,01,34,6.20
2016,03,30,01,35,6.20
2016,03,30,01,36,6.20
2016,03,30,01,37,6.20
2016,03,30,01,38,6.10
2016,03,30,01,39,6.10
2016,03,30,01,40,6.10
2016,03,30,01,41,6.10
2016,03,30,01,42,6.00
2016,03,30,01,43,6.00
2016,03,30,01,44,6.00
2016,03,30,01,45,6.00
2016,03,30,01,46,5.90
2016,03,30,01,47,5.90
2016,03,30,01,48,5.90
2016,03,30,01,49,5.90
2016,03,30,01,50,5.90
2016,03,30,01,51,5.90
2016,03,30,01,52,5.90
2016,03,30,01,53,5.90
2016,03,30,01,54,5.90
2016,03,30,01,55,5.90
2016,03,30,01,56,5.80
2016,03,30,01,57,5.80
2016,03,30,01,58,5.80
2016,03,30,01,59,5.80
2016,03,30,02,00,5.80
2016,03,30,02,01,5.80
2016,03,30,02,02,5.80
2016,03,30,02,03,5.80
2016,03,30,02,04,5.80
2016,03,30,02,05,5.80
2016,03,30,02,06,5.80
2016,03,30,02,07,5.80
2016,03,30,02,08,5.70
2016,03,30,02,09,5.70
2016,03,30,02,10,5.70
2016,03,30,02,11,5.70
2016,03,30,02,12,5.70
2016,03,30,02,13,5.70
2016,03,30,02,14,5.70
2016,03,30,02,15,5.70
2016,03,30,02,16,5.70
2016,03,30,02,17,5.70
2016,03,30,02,18,5.70
2016,03,30,02,19,5.70
2016,03,30,02,20,5.70
2016,03,30,02,21,5.70
2016,03,30,02,22,5.70
2016,03,30,02,23,5.60
2016,03,30,02,24,5.60
2016,03,30,02,25,5.60
2016,03,30,02,26,5.50
2016,03,30,02,27,5.50
2016,03,30,02,28,5.50
2016,03,30,02,29,5.40
2016,03,30,02,30,5.40
2016,03,30,02,31,5.40
2016,03,30,02,32,5.40
2016,03,30,02,33,5.40
2016,03,30,02,34,5.40
2016,03,30,02,35,5.40
2016,03,30,02,36,5.40
2016,03,30,02,37,5.40
2016,03,30,02,38,5.40
2016,03,30,02,39,5.40
2016,03,30,02,40,5.40
2016,03,30,02,41,5.40
2016,03,30,02,42,5.40
2016,03,30,02,43,5.40
2016,03,30,02,44,5.30
2016,03,30,02,45,5.30
2016,03,30,02,46,5.30
2016,03,30,02,47,5.30
2016,03,30,02,48,5.30
2016,03,30,02,49,5.30
2016,03,30,02,50,5.30
2016,03,30,02,51,5.30
2016,03,30,02,52,5.30
2016,03,30,02,53,5.20
2016,03,30,02,54,5.20
2016,03,30,02,55,5.20
2016,03,30,02,56,5.20
2016,03,30,02,57,5.20
2016,03,30,02,58,5.20
2016,03,30,02,59,5.20
2016,03,30,03,00,5.20
2016,03,30,03,01,5.20
2016,03,30,03,02,5.10
2016,03,30,03,03,5.10
2016,03,30,03,04,5.10
2016,03,30,03,05,5.10
2016,03,30,03,06,5.10
2016,03,30,03,07,5.10
2016,03,30,03,08,5.10
2016,03,30,03,09,5.10
2016,03,30,03,10,5.10
2016,03,30,03,11,5.10
2016,03,30,03,12,5.10
2016,03,30,03,13,5.10
2016,03,30,03,14,5.10
2016,03,30,03,15,5.10
2016,03,30,03,16,5.10
2016,03,30,03,17,5.10
2016,03,30,03,18,5.10
2016,03,30,03,19,5.10
2016,03,30,03,20,5.00
2016,03,30,03,21,5.00
2016,03,30,03,22,5.00
2016,03,30,03,23,4.90
2016,03,30,03,24,4.90
2016,03,30,03,25,4.90
2016,03,30,03,26,4.90
2016,03,30,03,27,4.90
2016,03,30,03,28,4.90
2016,03,30,03,29,4.90
2016,03,30,03,30,4.80
2016,03,30,03,31,4.80
2016,03,30,03,32,4.80
2016,03,30,03,33,4.80
2016,03,30,03,34,4.80
2016,03,30,03,35,4.70
2016,03,30,03,36,4.70
2016,03,30,03,37,4.70
2016,03,30,03,38,4.70
2016,03,30,03,39,4.70
2016,03,30,03,40,4.70
2016,03,30,03,41,4.70
2016,03,30,03,42,4.60
2016,03,30,03,43,4.60
2016,03,30,03,44,4.60
2016,03,30,03,45,4.60
2016,03,30,03,46,4.60
2016,03,30,03,47,4.60
2016,03,30,03,48,4.60
2016,03,30,03,49,4.60
2016,03,30,03,50,4.60
2016,03,30,03,51,4.50
2016,03,30,03,52,4.50
2016,03,30,03,53,4.50
2016,03,30,03,54,4.50
2016,03,30,03,55,4.50
2016,03,30,03,56,4.50
2016,03,30,03,57,4.40
2016,03,30,03,58,4.40
2016,03,30,03,59,4.40
2016,03,30,04,00,4.40
2016,03,30,04,01,4.40
2016,03,30,04,02,4.40
2016,03,30,04,03,4.40
2016,03,30,04,04,4.40
2016,03,30,04,05,4.40
2016,03,30,04,06,4.40
2016,03,30,04,07,4.40
2016,03,30,04,08,4.40
2016,03,30,04,09,4.40
2016,03,30,04,10,4.40
2016,03,30,04,11,4.40
2016,03,30,04,12,4.40
2016,03,30,04,13,4.40
2016,03,30,04,14,4.40
2016,03,30,04,15,4.30
2016,03,30,04,16,4.30
2016,03,30,04,17,4.30
2016,03,30,04,18,4.30
2016,03,30,04,19,4.30
2016,03,30,04,20,4.30
2016,03,30,04,21,4.30
2016,03,30,04,22,4.30
2016,03,30,04,23,4.30
2016,03,30,04,24,4.30
2016,03,30,04,25,4.30
2016,03,30,04,26,4.30
2016,03,30,04,27,4.30
2016,03,30,04,28,4.30
2016,03,30,04,29,4.30
2016,03,30,04,30,4.30
2016,03,30,04,31,4.30
2016,03,30,04,32,4.30
2016,03,30,04,33,4.30
2016,03,30,04,34,4.30
2016,03,30,04,35,4.30
2016,03,30,04,36,4.20
2016,03,30,04,37,4.20
2016,03,30,04,38,4.20
2016,03,30,04,39,4.20
2016,03,30,04,40,4.20
2016,03,30,04,41,4.20
2016,03,30,04,42,4.10
2016,03,30,04,43,4.10
2016,03,30,04,44,4.10
2016,03,30,04,45,4.10
2016,03,30,04,46,4.10
2016,03,30,04,47,4.10
2016,03,30,04,48,4.10
2016,03,30,04,49,4.10
2016,03,30,04,50,4.10
2016,03,30,04,51,4.10
2016,03,30,04,52,4.10
2016,03,30,04,53,4.10
2016,03,30,04,54,4.10
2016,03,30,04,55,4.10
2016,03,30,04,56,4.10
2016,03,30,04,57,4.10
2016,03,30,04,58,4.10
2016,03,30,04,59,4.10
2016,03,30,05,00,4.10
2016,03,30,05,01,4.10
2016,03,30,05,02,4.10
2016,03,30,05,03,4.10
2016,03,30,05,04,4.00
2016,03,30,05,05,4.00
2016,03,30,05,06,4.00
2016,03,30,05,07,4.00
2016,03,30,05,08,4.00
2016,03,30,05,09,4.00
2016,03,30,05,10,3.90
2016,03,30,05,11,3.90
2016,03,30,05,12,3.90
2016,03,30,05,13,3.90
2016,03,30,05,14,3.90
2016,03,30,05,15,3.90
2016,03,30,05,16,3.90
2016,03,30,05,17,3.90
2016,03,30,05,18,3.90
2016,03,30,05,19,3.90
2016,03,30,05,20,3.90
2016,03,30,05,21,3.90
2016,03,30,05,22,3.90
2016,03,30,05,23,3.90
2016,03,30,05,24,3.90
2016,03,30,05,25,3.90
2016,03,30,05,26,3.90
2016,03,30,05,27,3.90
2016,03,30,05,28,3.90
2016,03,30,05,29,3.90
2016,03,30,05,30,3.90
2016,03,30,05,31,3.90
2016,03,30,05,32,3.90
2016,03,30,05,33,3.90
2016,03,30,05,34,3.90
2016,03,30,05,35,3.90
2016,03,30,05,36,3.90
2016,03,30,05,37,3.90
2016,03,30,05,38,3.90
2016,03,30,05,39,3.90
2016,03,30,05,40,3.90
2016,03,30,05,41,3.90
2016,03,30,05,42,3.90
2016,03,30,05,43,3.90
2016,03,30,05,44,4.00
2016,03,30,05,45,4.00
2016,03,30,05,46,4.00
2016,03,30,05,47,4.00
2016,03,30,05,48,3.90
2016,03,30,05,49,3.90
2016,03,30,05,50,3.90
2016,03,30,05,51,3.90
2016,03,30,05,52,3.90
2016,03,30,05,53,3.90
2016,03,30,05,54,3.90
2016,03,30,05,55,3.90
2016,03,30,05,56,3.90
2016,03,30,05,57,3.90
2016,03,30,05,58,3.90
2016,03,30,05,59,3.90
2016,03,30,06,00,4.00
2016,03,30,06,01,4.00
2016,03,30,06,02,4.10
2016,03,30,06,03,4.10
2016,03,30,06,04,4.10
2016,03,30,06,05,4.00
2016,03,30,06,06,4.00
2016,03,30,06,07,3.90
2016,03,30,06,08,3.90
2016,03,30,06,09,3.90
2016,03,30,06,10,3.90
2016,03,30,06,11,3.90
2016,03,30,06,12,3.90
2016,03,30,06,13,3.90
2016,03,30,06,14,3.90
2016,03,30,06,15,3.90
2016,03,30,06,16,3.90
2016,03,30,06,17,3.90
2016,03,30,06,18,3.90
2016,03,30,06,19,3.90
2016,03,30,06,20,3.90
2016,03,30,06,21,3.80
2016,03,30,06,22,3.80
2016,03,30,06,23,3.80
2016,03,30,06,24,3.80
2016,03,30,06,25,3.80
2016,03,30,06,26,3.80
2016,03,30,06,27,3.90
2016,03,30,06,28,3.90
2016,03,30,06,29,3.90
2016,03,30,06,30,3.90
2016,03,30,06,31,3.90
2016,03,30,06,32,3.90
2016,03,30,06,33,3.90
2016,03,30,06,34,3.90
2016,03,30,06,35,3.90
2016,03,30,06,36,3.90
2016,03,30,06,37,3.90
2016,03,30,06,38,3.80
2016,03,30,06,39,3.80
2016,03,30,06,40,3.80
2016,03,30,06,41,3.80
2016,03,30,06,42,3.80
2016,03,30,06,43,3.80
2016,03,30,06,44,3.80
2016,03,30,06,45,3.80
2016,03,30,06,46,3.80
2016,03,30,06,47,3.80
2016,03,30,06,48,3.80
2016,03,30,06,49,3.80
2016,03,30,06,50,3.80
2016,03,30,06,51,3.80
2016,03,30,06,52,3.80
2016,03,30,06,53,3.80
2016,03,30,06,54,3.70
2016,03,30,06,55,3.70
2016,03,30,06,56,3.70
2016,03,30,06,57,3.70
2016,03,30,06,58,3.70
2016,03,30,06,59,3.70
2016,03,30,07,00,3.70
2016,03,30,07,01,3.70
2016,03,30,07,02,3.70
2016,03,30,07,03,3.70
2016,03,30,07,04,3.60
2016,03,30,07,05,3.60
2016,03,30,07,06,3.60
2016,03,30,07,07,3.60
2016,03,30,07,08,3.60
2016,03,30,07,09,3.60
2016,03,30,07,10,3.60
2016,03,30,07,11,3.60
2016,03,30,07,12,3.70
2016,03,30,07,13,3.70
2016,03,30,07,14,3.70
2016,03,30,07,15,3.70
2016,03,30,07,16,3.70
2016,03,30,07,17,3.70
2016,03,30,07,18,3.70
2016,03,30,07,19,3.70
2016,03,30,07,20,3.70
2016,03,30,07,21,3.70
2016,03,30,07,22,3.70
2016,03,30,07,23,3.70
2016,03,30,07,24,3.70
2016,03,30,07,25,3.70
2016,03,30,07,26,3.70
2016,03,30,07,27,3.70
2016,03,30,07,28,3.70
2016,03,30,07,29,3.80
2016,03,30,07,30,3.80
2016,03,30,07,31,3.80
2016,03,30,07,32,3.80
2016,03,30,07,33,3.90
2016,03,30,07,34,3.90
2016,03,30,07,35,4.00
2016,03,30,07,36,4.10
2016,03,30,07,37,4.10
2016,03,30,07,38,4.20
2016,03,30,07,39,4.20
2016,03,30,07,40,4.30
2016,03,30,07,41,4.30
2016,03,30,07,42,4.40
2016,03,30,07,43,4.50
2016,03,30,07,44,4.50
2016,03,30,07,45,4.60
2016,03,30,07,46,4.60
2016,03,30,07,47,4.70
2016,03,30,07,48,4.70
2016,03,30,07,49,4.70
2016,03,30,07,50,4.80
2016,03,30,07,51,4.80
2016,03,30,07,52,4.90
2016,03,30,07,53,5.00
2016,03,30,07,54,5.10
2016,03,30,07,55,5.10
2016,03,30,07,56,5.10
2016,03,30,07,57,5.10
2016,03,30,07,58,5.20
2016,03,30,07,59,5.20
2016,03,30,08,00,5.20
2016,03,30,08,01,5.30
2016,03,30,08,02,5.40
2016,03,30,08,03,5.40
2016,03,30,08,04,5.50
2016,03,30,08,05,5.50
2016,03,30,08,06,5.60
2016,03,30,08,07,5.60
2016,03,30,08,08,5.70
2016,03,30,08,09,5.80
2016,03,30,08,10,5.80
2016,03,30,08,11,5.90
2016,03,30,08,12,6.00
2016,03,30,08,13,6.00
2016,03,30,08,14,6.20
2016,03,30,08,15,6.20
2016,03,30,08,16,6.30
2016,03,30,08,17,6.40
2016,03,30,08,18,6.40
2016,03,30,08,19,6.50
2016,03,30,08,20,6.50
2016,03,30,08,21,6.60
2016,03,30,08,22,6.70
2016,03,30,08,23,6.70
2016,03,30,08,24,6.80
2016,03,30,08,25,6.90
2016,03,30,08,26,7.00
2016,03,30,08,27,7.10
2016,03,30,08,28,7.20
2016,03,30,08,29,7.30
2016,03,30,08,30,7.40
2016,03,30,08,31,7.50
2016,03,30,08,32,7.60
2016,03,30,08,33,7.70
2016,03,30,08,34,7.70
2016,03,30,08,35,7.80
2016,03,30,08,36,7.90
2016,03,30,08,37,7.90
2016,03,30,08,38,8.00
2016,03,30,08,39,8.20
2016,03,30,08,40,8.40
2016,03,30,08,41,8.50
2016,03,30,08,42,8.70
2016,03,30,08,43,8.90
2016,03,30,08,44,9.00
2016,03,30,08,45,9.20
2016,03,30,08,46,9.30
2016,03,30,08,47,9.40
2016,03,30,08,48,9.40
2016,03,30,08,49,9.50
2016,03,30,08,50,9.50
2016,03,30,08,51,9.60
2016,03,30,08,52,9.60
2016,03,30,08,53,9.70
2016,03,30,08,54,9.70
2016,03,30,08,55,9.70
2016,03,30,08,56,9.70
2016,03,30,08,57,9.70
2016,03,30,08,58,9.80
2016,03,30,08,59,9.80
2016,03,30,09,00,9.80
2016,03,30,09,01,9.90
2016,03,30,09,02,9.90
2016,03,30,09,03,10.00
2016,03,30,09,04,10.00
2016,03,30,09,05,10.10
2016,03,30,09,06,10.20
2016,03,30,09,07,10.20
2016,03,30,09,08,10.30
2016,03,30,09,09,10.40
2016,03,30,09,10,10.40
2016,03,30,09,11,10.50
2016,03,30,09,12,10.60
2016,03,30,09,13,10.60
2016,03,30,09,14,10.70
2016,03,30,09,15,10.80
2016,03,30,09,16,10.80
2016,03,30,09,17,10.90
2016,03,30,09,18,11.00
2016,03,30,09,19,11.10
2016,03,30,09,20,11.10
2016,03,30,09,21,11.20
2016,03,30,09,22,11.30
2016,03,30,09,23,11.40
2016,03,30,09,24,11.50
2016,03,30,09,25,11.60
2016,03,30,09,26,11.80
2016,03,30,09,27,12.00
2016,03,30,09,28,12.20
2016,03,30,09,29,12.30
2016,03,30,09,30,12.50
2016,03,30,09,31,12.70
2016,03,30,09,32,12.80
2016,03,30,09,33,12.90
2016,03,30,09,34,13.00
2016,03,30,09,35,13.10
2016,03,30,09,36,13.20
2016,03,30,09,37,13.30
2016,03,30,09,38,13.30
2016,03,30,09,39,13.40
2016,03,30,09,40,13.40
2016,03,30,09,41,13.50
2016,03,30,09,42,13.60
2016,03,30,09,43,13.60
2016,03,30,09,44,13.60
2016,03,30,09,45,13.70
2016,03,30,09,46,13.70
2016,03,30,09,47,13.70
2016,03,30,09,48,13.70
2016,03,30,09,49,13.80
2016,03,30,09,50,13.80
2016,03,30,09,51,13.80
2016,03,30,09,52,13.80
2016,03,30,09,53,13.80
2016,03,30,09,54,13.80
2016,03,30,09,55,13.80
2016,03,30,09,56,13.80
2016,03,30,09,57,13.90
2016,03,30,09,58,13.90
2016,03,30,09,59,13.90
2016,03,30,10,00,14.00
2016,03,30,10,01,14.00
2016,03,30,10,02,14.10
2016,03,30,10,03,14.10
2016,03,30,10,04,14.20
2016,03,30,10,05,14.20
2016,03,30,10,06,14.20
2016,03,30,10,07,14.20
2016,03,30,10,08,14.20
2016,03,30,10,09,14.20
2016,03,30,10,10,14.20
2016,03,30,10,11,14.20
2016,03,30,10,12,14.20
2016,03,30,10,13,14.20
2016,03,30,10,14,14.20
2016,03,30,10,15,14.20
2016,03,30,10,16,14.20
2016,03,30,10,17,14.20
2016,03,30,10,18,14.20
2016,03,30,10,19,14.20
2016,03,30,10,20,14.20
2016,03,30,10,21,14.20
2016,03,30,10,22,14.10
2016,03,30,10,23,14.10
2016,03,30,10,24,14.10
2016,03,30,10,25,14.20
2016,03,30,10,26,14.20
2016,03,30,10,27,14.20
2016,03,30,10,28,14.20
2016,03,30,10,29,14.20
2016,03,30,10,30,14.20
2016,03,30,10,31,14.20
2016,03,30,10,32,14.10
2016,03,30,10,33,14.10
2016,03,30,10,34,14.10
2016,03,30,10,35,14.10
2016,03,30,10,36,14.10
2016,03,30,10,37,14.10
2016,03,30,10,38,14.10
2016,03,30,10,39,14.10
2016,03,30,10,40,14.10
2016,03,30,10,41,14.10
2016,03,30,10,42,14.20
2016,03,30,10,43,14.20
2016,03,30,10,44,14.20
2016,03,30,10,45,14.20
2016,03,30,10,46,14.20
2016,03,30,10,47,14.20
2016,03,30,10,48,14.20
2016,03,30,10,49,14.30
2016,03,30,10,50,14.30
2016,03,30,10,51,14.40
2016,03,30,10,52,14.40
2016,03,30,10,53,14.50
2016,03,30,10,54,14.50
2016,03,30,10,55,14.50
2016,03,30,10,56,14.50
2016,03,30,10,57,14.50
2016,03,30,10,58,14.50
2016,03,30,10,59,14.50
2016,03,30,11,00,14.50
2016,03,30,11,01,14.60
2016,03,30,11,02,14.60
2016,03,30,11,03,14.70
2016,03,30,11,04,14.70
2016,03,30,11,05,14.70
2016,03,30,11,06,14.80
2016,03,30,11,07,14.80
2016,03,30,11,08,14.80
2016,03,30,11,09,14.80
2016,03,30,11,10,14.80
2016,03,30,11,11,14.90
2016,03,30,11,12,14.90
2016,03,30,11,13,15.00
2016,03,30,11,14,15.00
2016,03,30,11,15,15.00
2016,03,30,11,16,15.00
2016,03,30,11,17,15.00
2016,03,30,11,18,15.00
2016,03,30,11,19,15.00
2016,03,30,11,20,15.00
2016,03,30,11,21,15.00
2016,03,30,11,22,14.90
2016,03,30,11,23,14.90
2016,03,30,11,24,14.80
2016,03,30,11,25,14.70
2016,03,30,11,26,14.70
2016,03,30,11,27,14.70
2016,03,30,11,28,14.70
2016,03,30,11,29,14.70
2016,03,30,11,30,14.70
2016,03,30,11,31,14.70
2016,03,30,11,32,14.70
2016,03,30,11,33,14.70
2016,03,30,11,34,14.70
2016,03,30,11,35,14.70
2016,03,30,11,36,14.70
2016,03,30,11,37,14.70
2016,03,30,11,38,14.70
2016,03,30,11,39,14.70
2016,03,30,11,40,14.70
2016,03,30,11,41,14.70
2016,03,30,11,42,14.70
2016,03,30,11,43,14.70
2016,03,30,11,44,14.70
2016,03,30,11,45,14.60
2016,03,30,11,46,14.60
2016,03,30,11,47,14.60
2016,03,30,11,48,14.60
2016,03,30,11,49,14.70
2016,03,30,11,50,14.70
2016,03,30,11,51,14.70
2016,03,30,11,52,14.70
2016,03,30,11,53,14.60
2016,03,30,11,54,14.60
2016,03,30,11,55,14.70
2016,03,30,11,56,14.80
2016,03,30,11,57,14.80
2016,03,30,11,58,14.80
2016,03,30,11,59,14.80
2016,03,30,12,00,14.80
2016,03,30,12,01,14.70
2016,03,30,12,02,14.70
2016,03,30,12,03,14.70
2016,03,30,12,04,14.80
2016,03,30,12,05,14.90
2016,03,30,12,06,15.00
2016,03,30,12,07,15.10
2016,03,30,12,08,15.20
2016,03,30,12,09,15.30
2016,03,30,12,10,15.30
2016,03,30,12,11,15.30
2016,03,30,12,12,15.30
2016,03,30,12,13,15.20
2016,03,30,12,14,15.20
2016,03,30,12,15,15.20
2016,03,30,12,16,15.30
2016,03,30,12,17,15.40
2016,03,30,12,18,15.40
2016,03,30,12,19,15.50
2016,03,30,12,20,15.60
2016,03,30,12,21,15.60
2016,03,30,12,22,15.60
2016,03,30,12,23,15.60
2016,03,30,12,24,15.60
2016,03,30,12,25,15.70
2016,03,30,12,26,15.70
2016,03,30,12,27,15.80
2016,03,30,12,28,15.80
2016,03,30,12,29,15.80
2016,03,30,12,30,15.80
2016,03,30,12,31,15.80
2016,03,30,12,32,15.80
2016,03,30,12,33,15.80
2016,03,30,12,34,15.80
2016,03,30,12,35,15.90
2016,03,30,12,36,15.90
2016,03,30,12,37,15.90
2016,03,30,12,38,15.90
2016,03,30,12,39,15.90
2016,03,30,12,40,15.90
2016,03,30,12,41,16.00
2016,03,30,12,42,16.00
2016,03,30,12,43,16.10
2016,03,30,12,44,16.10
2016,03,30,12,45,16.10
2016,03,30,12,46,16.10
2016,03,30,12,47,16.20
2016,03,30,12,48,16.20
2016,03,30,12,49,16.20
2016,03,30,12,50,16.20
2016,03,30,12,51,16.30
2016,03,30,12,52,16.30
2016,03,30,12,53,16.30
2016,03,30,12,54,16.40
2016,03,30,12,55,16.40
2016,03,30,12,56,16.40
2016,03,30,12,57,16.50
2016,03,30,12,58,16.50
2016,03,30,12,59,16.60
2016,03,30,13,00,16.70
2016,03,30,13,01,16.70
2016,03,30,13,02,16.70
2016,03,30,13,03,16.70
2016,03,30,13,04,16.70
2016,03,30,13,05,16.60
2016,03,30,13,06,16.60
2016,03,30,13,07,16.50
2016,03,30,13,08,16.50
2016,03,30,13,09,16.40
2016,03,30,13,10,16.40
2016,03,30,13,11,16.40
2016,03,30,13,12,16.40
2016,03,30,13,13,16.40
2016,03,30,13,14,16.30
2016,03,30,13,15,16.20
2016,03,30,13,16,16.20
2016,03,30,13,17,16.10
2016,03,30,13,18,16.10
2016,03,30,13,19,16.00
2016,03,30,13,20,15.90
2016,03,30,13,21,16.00
2016,03,30,13,22,16.00
2016,03,30,13,23,15.90
2016,03,30,13,24,15.90
2016,03,30,13,25,15.80
2016,03,30,13,26,15.80
2016,03,30,13,27,15.70
2016,03,30,13,28,15.70
2016,03,30,13,29,15.70
2016,03,30,13,30,15.70
2016,03,30,13,31,15.80
2016,03,30,13,32,15.80
2016,03,30,13,33,15.90
2016,03,30,13,34,15.80
2016,03,30,13,35,15.80
2016,03,30,13,36,15.80
2016,03,30,13,37,15.80
2016,03,30,13,38,15.80
2016,03,30,13,39,15.90
2016,03,30,13,40,15.90
2016,03,30,13,41,15.90
2016,03,30,13,42,15.90
2016,03,30,13,43,15.90
2016,03,30,13,44,15.90
2016,03,30,13,45,16.00
2016,03,30,13,46,16.10
2016,03,30,13,47,16.10
2016,03,30,13,48,16.10
2016,03,30,13,49,16.10
2016,03,30,13,50,16.10
2016,03,30,13,51,16.20
2016,03,30,13,52,16.20
2016,03,30,13,53,16.10
2016,03,30,13,54,16.20
2016,03,30,13,55,16.20
2016,03,30,13,56,16.10
2016,03,30,13,57,16.10
2016,03,30,13,58,16.00
2016,03,30,13,59,15.90
2016,03,30,14,00,15.90
2016,03,30,14,01,15.80
2016,03,30,14,02,15.80
2016,03,30,14,03,15.80
2016,03,30,14,04,15.70
2016,03,30,14,05,15.60
2016,03,30,14,06,15.50
2016,03,30,14,07,15.30
2016,03,30,14,08,15.30
2016,03,30,14,09,15.20
2016,03,30,14,10,15.20
2016,03,30,14,11,15.20
2016,03,30,14,12,15.20
2016,03,30,14,13,15.20
2016,03,30,14,14,15.20
2016,03,30,14,15,15.20
2016,03,30,14,16,15.20
2016,03,30,14,17,15.20
2016,03,30,14,18,15.20
2016,03,30,14,19,15.20
2016,03,30,14,20,15.20
2016,03,30,14,21,15.20
2016,03,30,14,22,15.30
2016,03,30,14,23,15.30
2016,03,30,14,24,15.40
2016,03,30,14,25,15.40
2016,03,30,14,26,15.40
2016,03,30,14,27,15.50
2016,03,30,14,28,15.50
2016,03,30,14,29,15.50
2016,03,30,14,30,15.50
2016,03,30,14,31,15.40
2016,03,30,14,32,15.40
2016,03,30,14,33,15.30
2016,03,30,14,34,15.30
2016,03,30,14,35,15.30
2016,03,30,14,36,15.30
2016,03,30,14,37,15.30
2016,03,30,14,38,15.30
2016,03,30,14,39,15.30
2016,03,30,14,40,15.30
2016,03,30,14,41,15.30
2016,03,30,14,42,15.30
2016,03,30,14,43,15.30
2016,03,30,14,44,15.40
2016,03,30,14,45,15.40
2016,03,30,14,46,15.40
2016,03,30,14,47,15.40
2016,03,30,14,48,15.40
2016,03,30,14,49,15.50
2016,03,30,14,50,15.50
2016,03,30,14,51,15.60
2016,03,30,14,52,15.60
2016,03,30,14,53,15.70
2016,03,30,14,54,15.70
2016,03,30,14,55,15.70
2016,03,30,14,56,15.80
2016,03,30,14,57,15.90
2016,03,30,14,58,16.00
2016,03,30,14,59,16.00
2016,03,30,15,00,16.10
2016,03,30,15,01,16.10
2016,03,30,15,02,16.10
2016,03,30,15,03,16.00
2016,03,30,15,04,16.00
2016,03,30,15,05,15.90
2016,03,30,15,06,15.90
2016,03,30,15,07,16.00
2016,03,30,15,08,16.00
2016,03,30,15,09,16.00
2016,03,30,15,10,16.10
2016,03,30,15,11,16.10
2016,03,30,15,12,16.10
2016,03,30,15,13,16.10
2016,03,30,15,14,16.10
2016,03,30,15,15,16.10
2016,03,30,15,16,16.10
2016,03,30,15,17,16.10
2016,03,30,15,18,16.10
2016,03,30,15,19,16.10
2016,03,30,15,20,16.20
2016,03,30,15,21,16.20
2016,03,30,15,22,16.20
2016,03,30,15,23,16.20
2016,03,30,15,24,16.30
2016,03,30,15,25,16.30
2016,03,30,15,26,16.40
2016,03,30,15,27,16.40
2016,03,30,15,28,16.50
2016,03,30,15,29,16.50
2016,03,30,15,30,16.60
2016,03,30,15,31,16.80
2016,03,30,15,32,16.90
2016,03,30,15,33,17.00
2016,03,30,15,34,17.10
2016,03,30,15,35,17.20
2016,03,30,15,36,17.20
2016,03,30,15,37,17.30
2016,03,30,15,38,17.30
2016,03,30,15,39,17.40
2016,03,30,15,40,17.40
2016,03,30,15,41,17.50
2016,03,30,15,42,17.60
2016,03,30,15,43,17.60
2016,03,30,15,44,17.70
2016,03,30,15,45,17.70
2016,03,30,15,46,17.70
2016,03,30,15,47,17.70
2016,03,30,15,48,17.70
2016,03,30,15,49,17.70
2016,03,30,15,50,17.70
2016,03,30,15,51,17.70
2016,03,30,15,52,17.70
2016,03,30,15,53,17.70
2016,03,30,15,54,17.70
2016,03,30,15,55,17.80
2016,03,30,15,56,17.80
2016,03,30,15,57,17.90
2016,03,30,15,58,18.00
2016,03,30,15,59,18.10
2016,03,30,16,00,18.20
2016,03,30,16,01,18.30
2016,03,30,16,02,18.30
2016,03,30,16,03,18.40
2016,03,30,16,04,18.50
2016,03,30,16,05,18.60
2016,03,30,16,06,18.70
2016,03,30,16,07,18.70
2016,03,30,16,08,18.80
2016,03,30,16,09,18.90
2016,03,30,16,10,18.90
2016,03,30,16,11,18.90
2016,03,30,16,12,19.00
2016,03,30,16,13,19.10
2016,03,30,16,14,19.20
2016,03,30,16,15,19.20
2016,03,30,16,16,19.30
2016,03,30,16,17,19.30
2016,03,30,16,18,19.30
2016,03,30,16,19,19.20
2016,03,30,16,20,19.10
2016,03,30,16,21,18.90
2016,03,30,16,22,18.70
2016,03,30,16,23,18.60
2016,03,30,16,24,18.50
2016,03,30,16,25,18.40
2016,03,30,16,26,18.40
2016,03,30,16,27,18.40
2016,03,30,16,28,18.40
2016,03,30,16,29,18.40
2016,03,30,16,30,18.40
2016,03,30,16,31,18.40
2016,03,30,16,32,18.40
2016,03,30,16,33,18.40
2016,03,30,16,34,18.50
2016,03,30,16,35,18.50
2016,03,30,16,36,18.60
2016,03,30,16,37,18.70
2016,03,30,16,38,18.80
2016,03,30,16,39,18.80
2016,03,30,16,40,18.80
2016,03,30,16,41,18.80
2016,03,30,16,42,18.80
2016,03,30,16,43,18.80
2016,03,30,16,44,18.80
2016,03,30,16,45,18.80
2016,03,30,16,46,18.70
2016,03,30,16,47,18.70
2016,03,30,16,48,18.70
2016,03,30,16,49,18.70
2016,03,30,16,50,18.60
2016,03,30,16,51,18.60
2016,03,30,16,52,18.50
2016,03,30,16,53,18.40
2016,03,30,16,54,18.30
2016,03,30,16,55,18.30
2016,03,30,16,56,18.20
2016,03,30,16,57,18.10
2016,03,30,16,58,18.10
2016,03,30,16,59,18.00
2016,03,30,17,00,18.00
2016,03,30,17,01,17.90
2016,03,30,17,02,17.90
2016,03,30,17,03,17.90
2016,03,30,17,04,17.90
2016,03,30,17,05,17.90
2016,03,30,17,06,17.90
2016,03,30,17,07,17.80
2016,03,30,17,08,17.80
2016,03,30,17,09,17.80
2016,03,30,17,10,17.80
2016,03,30,17,11,17.80
2016,03,30,17,12,17.80
2016,03,30,17,13,17.90
2016,03,30,17,14,17.90
2016,03,30,17,15,17.90
2016,03,30,17,16,17.90
2016,03,30,17,17,17.90
2016,03,30,17,18,17.90
2016,03,30,17,19,17.90
2016,03,30,17,20,17.90
2016,03,30,17,21,17.90
2016,03,30,17,22,17.90
2016,03,30,17,23,17.90
2016,03,30,17,24,17.90
2016,03,30,17,25,18.00
2016,03,30,17,26,18.10
2016,03,30,17,27,18.20
2016,03,30,17,28,18.30
2016,03,30,17,29,18.30
2016,03,30,17,30,18.40
2016,03,30,17,31,18.40
2016,03,30,17,32,18.40
2016,03,30,17,33,18.30
2016,03,30,17,34,18.30
2016,03,30,17,35,18.30
2016,03,30,17,36,18.20
2016,03,30,17,37,18.10
2016,03,30,17,38,18.00
2016,03,30,17,39,17.80
2016,03,30,17,40,17.70
2016,03,30,17,41,17.70
2016,03,30,17,42,17.60
2016,03,30,17,43,17.40